Location: *
(46.1866°S, 178.5290°W)
Time: 19:36:10
(UTC+00:00)

USA 234 - Pass Details

Date: 19 May 2021
Orbit: 1102 x 1105 km, 123.0° (Epoch: 18 April)

Event Time Altitude Azimuth Distance (km) Brightness Sun altitude
Exits shadow 05:55:35 20° 115° (ESE) 2,337 4.4 -15.0°
Maximum altitude 06:00:11 53° 45° (NE) 1,343 3.5 -15.8°
Drops below altitude 10° 06:06:34 10° 329° (NNW) 2,969 6.1 -16.9°
Sets 06:09:07 0° 324° (NW) 3,921 6.9 -17.3°
